User: anonymous   Login
Location: Unspecified
(0.0000°N, 0.0000°E)
Time: 02:57:54
(UTC+00:00)
Language:

Nimbus 7 Rocket - Orbit

View from above orbital plane
View from above orbital plane
View from above satellite
View from above satellite

Ground track
Ground track

The orbit data is extracted from the following two-line orbital elements,

1 11081U 78098B   18171.65788755 -.00000039  00000-0  65486-5 0  9999
2 11081  99.4978  54.9751 0029333  13.7555 346.4393 13.85653113843795
Epoch (UTC): 20 June 2018 15:47:21
Eccentricity: 0.0029333
inclination: 99.4978°
perigee height: 922 km
apogee height: 965 km
right ascension of ascending node: 54.9751°
argument of perigee: 13.7555°
revolutions per day: 13.85653113
mean anomaly at epoch: 346.4393°
orbit number at epoch: 84379

The dashed part of the orbit path shows where the satellite is in the earth's shadow,  

DLR